sat.trackr.live / text

‹ back to catalog

STARLINK-4788

NORAD 53863 · 2022-114AX

PAYLOAD ACTIVE UNKNOWN

§ Identity

Operator
Country
US
Launch date
2022-09-19
Launch site
AFETR
Launch vehicle
Mass (kg)
RCS (m²)

Purposes: comms

External: N2YO · Heavens-Above · Gunter

§ Orbital elements

Epoch: 2026-09-20T04:49:31.105344Z

Period
94.01 min
Inclination
53.1588°
Eccentricity
0.0001367
Mean motion
15.31702626 rev/d
Perigee alt
469.8 km
Apogee alt
471.7 km
Semi-major
6,848.9 km
B*
2.9178e-5
RAAN
119.9545°
Arg perigee
83.4196°
Mean anomaly
276.6961°
Rev number
22,262

§ Raw data

STARLINK-47881 53863U 22114AX  26263.20105446  .00000540  00000+0  29178-4 0  99952 53863  53.1588 119.9545 0001367  83.4196 276.6961 15.31702626222623

JSON: /api/v1/satellites/53863 · /tle

For live sub-satellite position, see the globe view (requires WebGL).

§ Visibility from observer

Set your observer location to see the next 7 days of passes ≥ 10°. The values pass through the URL so the page stays shareable.

No JS? Fill the form by hand. The geolocation button needs JavaScript.